| time (UTC) | temp F | wind direction | speed MPH | gust MPH | rain 1hr in | rain 24hr in | rain mn in | humidity % | barometer mb |
| 20260505075504 | 57 | 182 | 1.0 | 4.0 | 0.00 | 0.00 | 0.00 | 75 | 1010.9 |
| 20260505075004 | 57 | 214 | 1.0 | 4.0 | 0.00 | 0.00 | 0.00 | 75 | 1010.9 |
| 20260505074516 | 57 | 207 | 0.0 | 2.0 | 0.00 | 0.00 | 0.00 | 75 | 1010.9 |
| 20260505074006 | 57 | 205 | 0.0 | 2.0 | 0.00 | 0.00 | 0.00 | 74 | 1010.9 |
| 20260505073503 | 57 | 201 | 1.0 | 4.0 | 0.00 | 0.00 | 0.00 | 74 | 1010.9 |
| 20260505073015 | 57 | 178 | 1.0 | 4.0 | 0.00 | 0.00 | 0.00 | 74 | 1010.9 |
| 20260505072503 | 57 | 207 | 1.0 | 4.0 | 0.00 | 0.00 | 0.00 | 74 | 1010.8 |
| 20260505072010 | 57 | 215 | 1.0 | 4.0 | 0.00 | 0.00 | 0.00 | 74 | 1010.8 |
| 20260505071519 | 57 | 196 | 1.0 | 3.0 | 0.00 | 0.00 | 0.00 | 74 | 1010.8 |
| 20260505071007 | 57 | 189 | 1.0 | 5.0 | 0.00 | 0.00 | 0.00 | 74 | 1010.8 |
| 20260505070504 | 57 | 202 | 1.0 | 5.0 | 0.00 | 0.00 | 0.00 | 73 | 1010.7 |
| 20260505070018 | 57 | 200 | 1.0 | 5.0 | 0.00 | 0.00 | 0.00 | 73 | 1010.6 |
| 20260505065509 | 58 | 205 | 2.0 | 5.0 | 0.00 | 0.00 | 0.00 | 73 | 1010.6 |
| 20260505065002 | 58 | 184 | 1.0 | 3.0 | 0.00 | 0.00 | 0.00 | 73 | 1010.6 |
| 20260505064506 | 58 | 185 | 1.0 | 4.0 | 0.00 | 0.00 | 0.00 | 72 | 1010.6 |
| 20260505064001 | 58 | 205 | 1.0 | 4.0 | 0.00 | 0.00 | 0.00 | 72 | 1010.7 |
| 20260505063502 | 58 | 204 | 1.0 | 6.0 | 0.00 | 0.00 | 0.00 | 72 | 1010.7 |
| 20260505063011 | 58 | 196 | 3.0 | 5.0 | 0.00 | 0.00 | 0.00 | 72 | 1010.7 |
| 20260505062503 | 58 | 202 | 0.0 | 5.0 | 0.00 | 0.00 | 0.00 | 71 | 1010.8 |
| 20260505062005 | 58 | 192 | 2.0 | 5.0 | 0.00 | 0.00 | 0.00 | 71 | 1010.8 |
| 20260505061520 | 58 | 201 | 2.0 | 7.0 | 0.00 | 0.00 | 0.00 | 71 | 1010.9 |
| 20260505061007 | 58 | 198 | 3.0 | 7.0 | 0.00 | 0.00 | 0.00 | 70 | 1010.9 |
| 20260505060509 | 58 | 194 | 1.0 | 7.0 | 0.00 | 0.00 | 0.00 | 70 | 1010.9 |
| 20260505060020 | 59 | 185 | 2.0 | 7.0 | 0.00 | 0.00 | 0.00 | 69 | 1010.8 |
| 20260505055509 | 58 | 205 | 2.0 | 6.0 | 0.00 | 0.00 | 0.00 | 69 | 1010.9 |
| 20260505055009 | 58 | 172 | 2.0 | 8.0 | 0.00 | 0.00 | 0.00 | 69 | 1010.9 |
| 20260505054519 | 58 | 209 | 1.0 | 8.0 | 0.00 | 0.00 | 0.00 | 69 | 1010.9 |
| 20260505054003 | 58 | 173 | 2.0 | 8.0 | 0.00 | 0.00 | 0.00 | 69 | 1010.9 |
| 20260505053502 | 58 | 213 | 1.0 | 4.0 | 0.00 | 0.00 | 0.00 | 69 | 1010.9 |
| 20260505053009 | 58 | 179 | 1.0 | 3.0 | 0.00 | 0.00 | 0.00 | 69 | 1010.9 |
| 20260505052506 | 58 | 202 | 0.0 | 5.0 | 0.00 | 0.00 | 0.00 | 68 | 1010.9 |
| 20260505052006 | 58 | 167 | 0.0 | 5.0 | 0.00 | 0.00 | 0.00 | 68 | 1010.9 |
| 20260505051517 | 59 | 197 | 1.0 | 5.0 | 0.00 | 0.00 | 0.00 | 68 | 1010.9 |
| 20260505051007 | 59 | 194 | 2.0 | 6.0 | 0.00 | 0.00 | 0.00 | 67 | 1010.9 |
| 20260505050508 | 59 | 171 | 2.0 | 6.0 | 0.00 | 0.00 | 0.00 | 67 | 1010.9 |
| 20260505041512 | 60 | 230 | 4.0 | 10.0 | 0.00 | 0.00 | 0.00 | 63 | 1011.1 |
| 20260505041003 | 60 | 156 | 3.0 | 10.0 | 0.00 | 0.00 | 0.00 | 63 | 1011.1 |
| 20260505040508 | 60 | 209 | 2.0 | 8.0 | 0.00 | 0.00 | 0.00 | 62 | 1011.2 |
| 20260505040016 | 60 | 202 | 3.0 | 8.0 | 0.00 | 0.00 | 0.00 | 62 | 1011.2 |
| 20260505035508 | 60 | 233 | 2.0 | 6.0 | 0.00 | 0.00 | 0.00 | 63 | 1011.1 |
| 20260505035008 | 60 | 204 | 2.0 | 6.0 | 0.00 | 0.00 | 0.00 | 63 | 1011.1 |
| 20260505034524 | 60 | 266 | 2.0 | 6.0 | 0.00 | 0.00 | 0.00 | 63 | 1011.0 |
| 20260505034012 | 60 | 200 | 2.0 | 5.0 | 0.00 | 0.00 | 0.00 | 63 | 1011.0 |
| 20260505033516 | 60 | 188 | 2.0 | 4.0 | 0.00 | 0.00 | 0.00 | 63 | 1011.1 |
| 20260505033024 | 59 | 232 | 2.0 | 6.0 | 0.00 | 0.00 | 0.00 | 64 | 1011.2 |
| 20260505032507 | 59 | 184 | 2.0 | 6.0 | 0.00 | 0.00 | 0.00 | 64 | 1011.2 |
| 20260505032008 | 59 | 194 | 1.0 | 4.0 | 0.00 | 0.00 | 0.00 | 64 | 1011.2 |
| 20260505031512 | 59 | 225 | 1.0 | 5.0 | 0.00 | 0.00 | 0.00 | 63 | 1011.2 |
| 20260505031003 | 59 | 208 | 2.0 | 5.0 | 0.00 | 0.00 | 0.00 | 63 | 1011.3 |
| 20260505030503 | 59 | 184 | 1.0 | 5.0 | 0.00 | 0.00 | 0.00 | 63 | 1011.3 |
| 20260505030014 | 59 | 192 | 1.0 | 8.0 | 0.00 | 0.00 | 0.00 | 63 | 1011.2 |
| 20260505025508 | 60 | 200 | 3.0 | 8.0 | 0.00 | 0.00 | 0.00 | 62 | 1011.3 |
| 20260505025007 | 60 | 197 | 2.0 | 7.0 | 0.00 | 0.00 | 0.00 | 62 | 1011.3 |
| 20260505024517 | 60 | 187 | 3.0 | 7.0 | 0.00 | 0.00 | 0.00 | 62 | 1011.4 |
| 20260505024008 | 60 | 187 | 2.0 | 7.0 | 0.00 | 0.00 | 0.00 | 62 | 1011.4 |
| 20260505023507 | 60 | 212 | 2.0 | 7.0 | 0.00 | 0.00 | 0.00 | 62 | 1011.3 |
| 20260505023024 | 60 | 194 | 2.0 | 5.0 | 0.00 | 0.00 | 0.00 | 61 | 1011.4 |
| 20260505022507 | 60 | 198 | 2.0 | 5.0 | 0.00 | 0.00 | 0.00 | 62 | 1011.4 |
| 20260505022010 | 60 | 182 | 1.0 | 4.0 | 0.00 | 0.00 | 0.00 | 61 | 1011.5 |
| 20260505021524 | 60 | 197 | 1.0 | 4.0 | 0.00 | 0.00 | 0.00 | 60 | 1011.4 |
| 20260505021006 | 60 | 179 | 1.0 | 4.0 | 0.00 | 0.00 | 0.00 | 60 | 1011.4 |
| 20260505020507 | 60 | 200 | 1.0 | 6.0 | 0.00 | 0.00 | 0.00 | 59 | 1011.5 |
| 20260505020015 | 61 | 207 | 2.0 | 7.0 | 0.00 | 0.00 | 0.00 | 58 | 1011.5 |
| 20260505015507 | 61 | 200 | 3.0 | 7.0 | 0.00 | 0.00 | 0.00 | 57 | 1011.5 |
| 20260505015004 | 61 | 188 | 1.0 | 7.0 | 0.00 | 0.00 | 0.00 | 57 | 1011.6 |
| 20260505014518 | 61 | 205 | 2.0 | 7.0 | 0.00 | 0.00 | 0.00 | 56 | 1011.6 |
| 20260505014006 | 61 | 209 | 2.0 | 7.0 | 0.00 | 0.00 | 0.00 | 55 | 1011.5 |
| 20260505013506 | 61 | 225 | 1.0 | 4.0 | 0.00 | 0.00 | 0.00 | 55 | 1011.4 |
| 20260505013020 | 62 | 156 | 1.0 | 6.0 | 0.00 | 0.00 | 0.00 | 54 | 1011.4 |
| 20260505012507 | 62 | 185 | 2.0 | 6.0 | 0.00 | 0.00 | 0.00 | 53 | 1011.4 |
| 20260505012011 | 62 | 198 | 2.0 | 5.0 | 0.00 | 0.00 | 0.00 | 52 | 1011.2 |
| 20260505011544 | 63 | 215 | 1.0 | 6.0 | 0.00 | 0.00 | 0.00 | 52 | 1011.2 |
| 20260505011008 | 63 | 207 | 2.0 | 6.0 | 0.00 | 0.00 | 0.00 | 51 | 1011.1 |
| 20260505010502 | 63 | 186 | 1.0 | 4.0 | 0.00 | 0.00 | 0.00 | 51 | 1011.1 |
| 20260505010015 | 63 | 186 | 1.0 | 6.0 | 0.00 | 0.00 | 0.00 | 49 | 1011.0 |
| 20260505005503 | 64 | 201 | 2.0 | 8.0 | 0.00 | 0.00 | 0.00 | 48 | 1010.9 |
| 20260505005004 | 63 | 213 | 2.0 | 8.0 | 0.00 | 0.00 | 0.00 | 48 | 1010.9 |
| 20260505004516 | 63 | 201 | 0.0 | 2.0 | 0.00 | 0.00 | 0.00 | 47 | 1010.9 |
| 20260505004006 | 63 | 217 | 0.0 | 2.0 | 0.00 | 0.00 | 0.00 | 48 | 1010.8 |
| 20260505003508 | 63 | 215 | 0.0 | 2.0 | 0.00 | 0.00 | 0.00 | 47 | 1010.8 |
| 20260505003020 | 64 | 215 | 0.0 | 2.0 | 0.00 | 0.00 | 0.00 | 46 | 1010.7 |
| 20260505002508 | 64 | 210 | 0.0 | 2.0 | 0.00 | 0.00 | 0.00 | 45 | 1010.7 |
| 20260505002011 | 65 | 211 | 0.0 | 2.0 | 0.00 | 0.00 | 0.00 | 43 | 1010.6 |
| 20260505001525 | 66 | 208 | 0.0 | 2.0 | 0.00 | 0.00 | 0.00 | 42 | 1010.6 |
| 20260505001012 | 66 | 193 | 0.0 | 2.0 | 0.00 | 0.00 | 0.00 | 42 | 1010.5 |
| 20260505000505 | 66 | 190 | 0.0 | 2.0 | 0.00 | 0.00 | 0.00 | 41 | 1010.5 |
| 20260505000006 | 67 | 198 | 0.0 | 4.0 | 0.00 | 0.00 | 0.00 | 40 | 1010.4 |
| 20260504235503 | 68 | 191 | 1.0 | 5.0 | 0.00 | 0.00 | 0.00 | 38 | 1010.4 |
| 20260504235007 | 68 | 189 | 1.0 | 5.0 | 0.00 | 0.00 | 0.00 | 38 | 1010.3 |
| 20260504234512 | 68 | 202 | 2.0 | 5.0 | 0.00 | 0.00 | 0.00 | 37 | 1010.2 |
| 20260504234002 | 69 | 261 | 1.0 | 5.0 | 0.00 | 0.00 | 0.00 | 37 | 1010.2 |
| 20260504233507 | 69 | 220 | 1.0 | 10.0 | 0.00 | 0.00 | 0.00 | 37 | 1010.1 |
| 20260504233016 | 69 | 186 | 4.0 | 9.0 | 0.00 | 0.00 | 0.00 | 37 | 1010.1 |
| 20260504232507 | 69 | 226 | 2.0 | 7.0 | 0.00 | 0.00 | 0.00 | 36 | 1010.1 |
| 20260504232010 | 69 | 200 | 1.0 | 8.0 | 0.00 | 0.00 | 0.00 | 38 | 1010.1 |
| 20260504231521 | 70 | 184 | 2.0 | 11.0 | 0.00 | 0.00 | 0.00 | 35 | 1010.1 |
| 20260504231008 | 70 | 157 | 4.0 | 11.0 | 0.00 | 0.00 | 0.00 | 35 | 1010.1 |
| 20260504230507 | 70 | 161 | 2.0 | 10.0 | 0.00 | 0.00 | 0.00 | 35 | 1010.1 |
| 20260504230025 | 70 | 108 | 3.0 | 10.0 | 0.00 | 0.00 | 0.00 | 35 | 1010.1 |
| 20260504225505 | 70 | 187 | 4.0 | 10.0 | 0.00 | 0.00 | 0.00 | 35 | 1010.0 |
| 20260504225002 | 70 | 277 | 2.0 | 8.0 | 0.00 | 0.00 | 0.00 | 36 | 1010.0 |
| 20260504224513 | 70 | 192 | 2.0 | 8.0 | 0.00 | 0.00 | 0.00 | 36 | 1010.0 |
| 20260504224003 | 70 | 270 | 2.0 | 6.0 | 0.00 | 0.00 | 0.00 | 34 | 1010.0 |
| 20260504223503 | 71 | 22 | 2.0 | 6.0 | 0.00 | 0.00 | 0.00 | 34 | 1009.9 |
| 20260504223018 | 71 | 265 | 2.0 | 6.0 | 0.00 | 0.00 | 0.00 | 35 | 1009.9 |
| 20260504222506 | 71 | 240 | 2.0 | 6.0 | 0.00 | 0.00 | 0.00 | 35 | 1009.9 |
| 20260504222007 | 71 | 196 | 2.0 | 10.0 | 0.00 | 0.00 | 0.00 | 35 | 1010.0 |
| 20260504221519 | 72 | 207 | 2.0 | 10.0 | 0.00 | 0.00 | 0.00 | 34 | 1010.0 |
| 20260504221012 | 72 | 186 | 4.0 | 10.0 | 0.00 | 0.00 | 0.00 | 33 | 1010.0 |
| 20260504220508 | 72 | 265 | 4.0 | 9.0 | 0.00 | 0.00 | 0.00 | 34 | 1010.0 |
| 20260504220024 | 72 | 161 | 3.0 | 8.0 | 0.00 | 0.00 | 0.00 | 35 | 1010.1 |
| 20260504215508 | 72 | 269 | 4.0 | 12.0 | 0.00 | 0.00 | 0.00 | 33 | 1010.2 |
| 20260504215009 | 72 | 246 | 4.0 | 12.0 | 0.00 | 0.00 | 0.00 | 32 | 1010.2 |
| 20260504214526 | 73 | 263 | 2.0 | 9.0 | 0.00 | 0.00 | 0.00 | 34 | 1010.2 |
| 20260504214002 | 73 | 149 | 2.0 | 8.0 | 0.00 | 0.00 | 0.00 | 34 | 1010.2 |
| 20260504213503 | 72 | 278 | 2.0 | 8.0 | 0.00 | 0.00 | 0.00 | 35 | 1010.2 |
| 20260504213012 | 73 | 248 | 4.0 | 8.0 | 0.00 | 0.00 | 0.00 | 37 | 1010.3 |
| 20260504212503 | 72 | 205 | 3.0 | 7.0 | 0.00 | 0.00 | 0.00 | 34 | 1010.2 |
| 20260504212007 | 73 | 200 | 2.0 | 11.0 | 0.00 | 0.00 | 0.00 | 34 | 1010.2 |
| 20260504211517 | 73 | 265 | 5.0 | 11.0 | 0.00 | 0.00 | 0.00 | 33 | 1010.3 |
| 20260504211007 | 73 | 257 | 3.0 | 11.0 | 0.00 | 0.00 | 0.00 | 33 | 1010.3 |
| 20260504210509 | 73 | 323 | 4.0 | 11.0 | 0.00 | 0.00 | 0.00 | 32 | 1010.2 |
| 20260504210021 | 73 | 290 | 2.0 | 9.0 | 0.00 | 0.00 | 0.00 | 36 | 1010.2 |
| 20260504205506 | 73 | 234 | 2.0 | 9.0 | 0.00 | 0.00 | 0.00 | 33 | 1010.2 |
| 20260504205011 | 73 | 226 | 4.0 | 9.0 | 0.00 | 0.00 | 0.00 | 31 | 1010.2 |
| 20260504204525 | 73 | 288 | 4.0 | 11.0 | 0.00 | 0.00 | 0.00 | 32 | 1010.3 |
| 20260504204010 | 73 | 167 | 3.0 | 11.0 | 0.00 | 0.00 | 0.00 | 32 | 1010.3 |
| 20260504203513 | 73 | 236 | 4.0 | 10.0 | 0.00 | 0.00 | 0.00 | 36 | 1010.2 |
| 20260504203012 | 73 | 153 | 3.0 | 10.0 | 0.00 | 0.00 | 0.00 | 32 | 1010.1 |
| 20260504202507 | 73 | 286 | 3.0 | 11.0 | 0.00 | 0.00 | 0.00 | 34 | 1010.2 |
| 20260504202006 | 72 | 256 | 5.0 | 11.0 | 0.00 | 0.00 | 0.00 | 32 | 1010.2 |
| 20260504201515 | 73 | 231 | 4.0 | 11.0 | 0.00 | 0.00 | 0.00 | 33 | 1010.2 |
| 20260504201007 | 73 | 279 | 3.0 | 9.0 | 0.00 | 0.00 | 0.00 | 33 | 1010.2 |
| 20260504200511 | 72 | 227 | 3.0 | 9.0 | 0.00 | 0.00 | 0.00 | 37 | 1010.3 |
| 20260504200018 | 73 | 109 | 3.0 | 9.0 | 0.00 | 0.00 | 0.00 | 33 | 1010.3 |
| 20260504195507 | 73 | 284 | 4.0 | 9.0 | 0.00 | 0.00 | 0.00 | 34 | 1010.4 |
| 20260504195007 | 72 | 251 | 4.0 | 9.0 | 0.00 | 0.00 | 0.00 | 33 | 1010.4 |
| 20260504194530 | 72 | 247 | 4.0 | 12.0 | 0.00 | 0.00 | 0.00 | 33 | 1010.6 |
| 20260504194009 | 72 | 232 | 4.0 | 12.0 | 0.00 | 0.00 | 0.00 | 34 | 1010.6 |
| 20260504193509 | 72 | 271 | 4.0 | 14.0 | 0.00 | 0.00 | 0.00 | 34 | 1010.6 |
| 20260504193026 | 72 | 217 | 5.0 | 14.0 | 0.00 | 0.00 | 0.00 | 34 | 1010.6 |
| 20260504192510 | 72 | 205 | 2.0 | 14.0 | 0.00 | 0.00 | 0.00 | 35 | 1010.8 |
| 20260504192009 | 72 | 201 | 6.0 | 12.0 | 0.00 | 0.00 | 0.00 | 32 | 1010.7 |
| 20260504191513 | 72 | 236 | 4.0 | 9.0 | 0.00 | 0.00 | 0.00 | 33 | 1010.9 |
| 20260504191007 | 72 | 273 | 3.0 | 9.0 | 0.00 | 0.00 | 0.00 | 36 | 1011.0 |
| 20260504190509 | 71 | 185 | 5.0 | 12.0 | 0.00 | 0.00 | 0.00 | 34 | 1011.1 |
| 20260504190028 | 71 | 197 | 5.0 | 12.0 | 0.00 | 0.00 | 0.00 | 36 | 1011.1 |
| 20260504185507 | 72 | 250 | 5.0 | 11.0 | 0.00 | 0.00 | 0.00 | 34 | 1011.2 |
| 20260504185008 | 71 | 259 | 4.0 | 10.0 | 0.00 | 0.00 | 0.00 | 33 | 1011.3 |
| 20260504184524 | 71 | 266 | 3.0 | 13.0 | 0.00 | 0.00 | 0.00 | 33 | 1011.4 |
| 20260504184011 | 71 | 286 | 5.0 | 15.0 | 0.00 | 0.00 | 0.00 | 36 | 1011.5 |
| 20260504183511 | 71 | 167 | 5.0 | 15.0 | 0.00 | 0.00 | 0.00 | 32 | 1011.4 |
| 20260504183026 | 71 | 149 | 5.0 | 14.0 | 0.00 | 0.00 | 0.00 | 33 | 1011.5 |
| 20260504182512 | 72 | 256 | 4.0 | 12.0 | 0.00 | 0.00 | 0.00 | 34 | 1011.6 |
| 20260504182012 | 71 | 281 | 3.0 | 12.0 | 0.00 | 0.00 | 0.00 | 35 | 1011.6 |
| 20260504181526 | 71 | 192 | 4.0 | 11.0 | 0.00 | 0.00 | 0.00 | 34 | 1011.7 |
| 20260504181012 | 71 | 267 | 3.0 | 13.0 | 0.00 | 0.00 | 0.00 | 36 | 1011.8 |
| 20260504180513 | 70 | 201 | 6.0 | 13.0 | 0.00 | 0.00 | 0.00 | 33 | 1011.8 |
| 20260504180017 | 70 | 230 | 3.0 | 12.0 | 0.00 | 0.00 | 0.00 | 33 | 1011.9 |
| 20260504175509 | 70 | 311 | 4.0 | 11.0 | 0.00 | 0.00 | 0.00 | 36 | 1012.0 |
| 20260504175012 | 69 | 275 | 3.0 | 11.0 | 0.00 | 0.00 | 0.00 | 37 | 1012.0 |
| 20260504174519 | 70 | 265 | 4.0 | 11.0 | 0.00 | 0.00 | 0.00 | 36 | 1012.1 |
| 20260504174008 | 70 | 274 | 5.0 | 9.0 | 0.00 | 0.00 | 0.00 | 35 | 1012.1 |
| 20260504173508 | 70 | 180 | 4.0 | 8.0 | 0.00 | 0.00 | 0.00 | 38 | 1012.1 |
| 20260504173024 | 69 | 219 | 4.0 | 11.0 | 0.00 | 0.00 | 0.00 | 40 | 1012.2 |
| 20260504172508 | 69 | 281 | 4.0 | 11.0 | 0.00 | 0.00 | 0.00 | 34 | 1012.3 |
| 20260504172010 | 71 | 228 | 4.0 | 11.0 | 0.00 | 0.00 | 0.00 | 35 | 1012.5 |
| 20260504171534 | 70 | 235 | 1.0 | 10.0 | 0.00 | 0.00 | 0.00 | 40 | 1012.4 |
| 20260504171012 | 69 | 233 | 3.0 | 10.0 | 0.00 | 0.00 | 0.00 | 35 | 1012.6 |
| 20260504170511 | 69 | 200 | 4.0 | 7.0 | 0.00 | 0.00 | 0.00 | 37 | 1012.7 |
| 20260504151005 | 65 | 250 | 4.0 | 12.0 | 0.00 | 0.00 | 0.00 | 46 | 1013.7 |
| 20260504150503 | 65 | 232 | 4.0 | 10.0 | 0.00 | 0.00 | 0.00 | 46 | 1013.7 |
| 20260504141003 | 62 | 197 | 5.0 | 9.0 | 0.00 | 0.00 | 0.00 | 47 | 1014.0 |
| 20260504140503 | 62 | 189 | 4.0 | 9.0 | 0.00 | 0.00 | 0.00 | 49 | 1014.0 |
| 20260504130502 | 57 | 159 | 4.0 | 10.0 | 0.00 | 0.00 | 0.00 | 59 | 1014.7 |
| 20260504110507 | 49 | 169 | 2.0 | 7.0 | 0.00 | 0.00 | 0.00 | 69 | 1015.2 |
| 20260504100506 | 45 | 360 | 1.0 | 2.0 | 0.00 | 0.00 | 0.00 | 69 | 1015.2 |
| 20260504081527 | 45 | 360 | 1.0 | 2.0 | 0.00 | 0.00 | 0.00 | 65 | 1014.7 |
| 20260504081006 | 45 | 360 | 0.0 | 2.0 | 0.00 | 0.00 | 0.00 | 65 | 1014.8 |
| 20260504080507 | 45 | 360 | 0.0 | 2.0 | 0.00 | 0.00 | 0.00 | 65 | 1014.8 |